Location: Orange Harbor Mobile Home Park
(26.6923°N, 81.7937°W)
Time: 18:02:19
(UTC+00:00)

X-37B - Visible Passes

Search period start: 13 June 2021 00:00
Search period end: 23 June 2021 00:00
Orbit: 386 x 389 km, 45.0° (Epoch: 10 June)

Date Brightness Start Highest point End Pass type
(mag) Time Alt. Az. Time Alt. Az. Time Alt. Az.
20 Jun 2.9 09:50:13 10° NNW 09:53:01 28° NE 09:55:48 10° E visible
21 Jun 3.8 08:52:33 10° N 08:54:30 15° NNE 08:56:28 10° ENE visible
22 Jun 1.0 01:22:16 10° SSW 01:25:15 39° SE 01:28:15 10° ENE visible
22 Jun 3.7 02:59:50 10° WNW 03:01:06 15° NW 03:01:06 15° NW visible
22 Jun 0.9 09:29:49 10° NW 09:32:58 66° NE 09:36:05 10° ESE visible
